JA3VQW-13 Hirakata JP current weather conditions

sailwx.info

Wind from 248

Air temperature 10.0° C
Dewpoint 8.4° C

Last reported at 2015-Mar-01 04:38 UTC.
Time now 2015-Mar-01 07:01 UTC

Location: N 34°48' E 135°40'.
View on Google Maps.

See reports from other nearby stations

  
Tides and Currents Weather Stations Pressure Air Temp Water Temp Dewpoint Dewpoint Depression Visibility Wind Speed Wind Dir Waves Ship Positions
date/time (UTC)wind fromknots sea level pressurealtimeterstation pressurevisibilityair tempwater tempwave heightnotes
2015-Mar-01 04:38 248 10.0
2015-Mar-01 04:08 248 9.4
2015-Mar-01 03:38 248 8.9
2015-Mar-01 03:08 270 8.9
2015-Mar-01 02:38 214 8.9
2015-Mar-01 02:08 238 8.3
2015-Mar-01 01:38 256 8.3
2015-Mar-01 01:08 248 8.3
2015-Mar-01 00:38 292 7.8
2015-Mar-01 00:08 158 7.8
2015-Feb-28 23:38 275 7.2
2015-Feb-28 23:08 270 6.7
2015-Feb-28 22:38 270 6.7
2015-Feb-28 22:08 270 6.1
2015-Feb-28 21:38 270 6.1
2015-Feb-28 21:08 292 6.1
2015-Feb-28 20:38 248 6.1
2015-Feb-28 20:08 225 6.1
2015-Feb-28 19:38 225 6.1
2015-Feb-28 19:08 225 6.1
2015-Feb-28 18:41 225 6.1
2015-Feb-28 18:38 225 6.7
2015-Feb-28 18:08 225 6.7
2015-Feb-28 17:38 248 7.2
2015-Feb-28 17:08 214 7.2
2015-Feb-28 16:38 248 7.2
2015-Feb-28 16:08 248 7.2
2015-Feb-28 15:38 248 7.2
2015-Feb-28 15:08 248 7.8
2015-Feb-28 14:38 270 7.8
2015-Feb-28 14:08 292 8.3
2015-Feb-28 13:38 292 8.3
2015-Feb-28 13:27 270 8.3
2015-Feb-28 13:08 270 8.3
2015-Feb-28 12:38 225 7.8
2015-Feb-28 12:08 225 8.3
2015-Feb-28 11:38 225 8.3
2015-Feb-28 11:08 227 8.9
2015-Feb-28 10:38 270 9.4
2015-Feb-28 10:08 270 9.4
2015-Feb-28 09:38 270 10.0
2015-Feb-28 09:08 292 10.6
2015-Feb-28 08:38 225 12.2
2015-Feb-28 08:08 270 14.4
2015-Feb-28 07:38 270 15.6
2015-Feb-28 07:08 152 16.1
2015-Feb-28 05:38 288 15.6
2015-Feb-28 05:08 248 16.7
2015-Feb-28 04:38 299 1 gusting 4 15.0
2015-Feb-28 04:08 270 14.4
2015-Feb-28 03:38 139 13.9
2015-Feb-28 03:08 237 13.3
2015-Feb-28 02:38 183 11.1
2015-Feb-28 02:08 197 8.3
2015-Feb-28 01:38 225 7.8
2015-Feb-28 01:08 292 2 gusting 5 7.8
2015-Feb-28 00:38 292 6.7
2015-Feb-28 00:08 270 6.1
2015-Feb-27 23:38 301 0 gusting 2 5.6
2015-Feb-27 23:08 292 0 gusting 2 4.4
2015-Feb-27 22:38 292 0 gusting 2 3.9
2015-Feb-27 22:08 292 3.9
2015-Feb-27 21:38 270 3.9
2015-Feb-27 21:08 292 3.3
2015-Feb-27 20:38 315 3.3
2015-Feb-27 20:08 292 3.3
2015-Feb-27 19:41 315 3.9
2015-Feb-27 19:38 292 3.9
2015-Feb-27 19:08 292 0 gusting 1 3.3
2015-Feb-27 18:38 292 3.3
2015-Feb-27 18:26 292 3.9
2015-Feb-27 18:08 292 3.9
2015-Feb-27 17:38 269 0 gusting 2 3.9
2015-Feb-27 17:08 292 1 gusting 4 3.9
2015-Feb-27 16:38 277 3.3
2015-Feb-27 16:08 292 3.9
2015-Feb-27 15:38 296 2 gusting 4 3.9
2015-Feb-27 15:08 296 1 gusting 5 3.3
2015-Feb-27 14:38 292 1 gusting 4 3.3
2015-Feb-27 14:08 292 2 gusting 5 3.3
2015-Feb-27 13:38 275 2 gusting 4 3.3
2015-Feb-27 13:08 281 5 gusting 7 3.3
2015-Feb-27 12:38 303 1 gusting 1 3.3
2015-Feb-27 12:08 282 3.3
2015-Feb-27 11:38 219 0 gusting 4 3.9
2015-Feb-27 11:08 292 3.9
2015-Feb-27 10:38 274 0 gusting 4 3.9
2015-Feb-27 10:08 270 4.4
2015-Feb-27 09:38 277 0 gusting 2 4.4
2015-Feb-27 09:08 253 0 gusting 1 5.0
2015-Feb-27 08:38 285 2 gusting 5 6.1
2015-Feb-27 08:08 292 1 gusting 4 6.1
2015-Feb-27 07:38 287 1 gusting 4 6.7
2015-Feb-27 07:08 245 0 gusting 1 7.2